Showing default

COSMO-SKYMED-FM3, 67304

Orbit data source: Space-Track

COSMO-SKYMED-FM3, 67304 is an Italian payload satellite in SSO that was launched on Sat, 03 Jan 2026 UTC via an FALCON 9 launch vehicle from the Air Force Western Test Range (AFWTR). Payload-class satellites include a variety of spacecraft equipped with specific instruments for various scientific and technological missions. These include communications satellites like Starlink; space stations such as the ISS; scientific satellites like the Hubble; Earth observation satellites from companies like Planet Labs, Umbra, and HawkEye 360; GPS; miniature CubeSats for education and research; and military/defense satellites.

Loading next visibility...
Identifier
67304, 2026-001A
Orbit
SSO
Country
Flag of ITIT
Related business
Manufacturer
Thales Alenia
Mission
Operational Defense Radar Imaging
Bus & Motor
PRIMA, AOCS
Mass
2,205 kg wet, ~1,800 kg dry
Launch date (UTC)
2026-01-03 (6 months ago)
Launch vehicle
FALCON 9
Launch site
Air Force Western Test Range (AFWTR)
Object type
Payload
Rocket body
Debris
Shape & HBR
Box + 3 Pan, 10.5 m
Radar Cross Section
14.025 m², Large (>1 m²)

Expand to show TLE details & history
Last TLE update: 8 hours ago

TLE from 8 hours ago
0 COSMO-SKYMED-FM3
1 67304U 26001A   26171.50705516  .00000212  00000-0  33182-4 0  9991
2 67304  97.8888 355.0607 0001389  95.2016 264.9356 14.82155546 24956
Epoch: 2026-06-20T12:10Z
TLE epoch observation values (Epoch: 2026-06-20T12:10:09.565Z)
Latitude
-0.00001°
Longitude
-96.19984°
Altitude
625.639 km
Speed
7.546 km/s
True Right ascension
23h 40m 14s
True Declination
0° 00' 00"
Sunlit
Object was in daylight at epoch
Visualization orbit readout
Latitude
Unknown
Longitude
Unknown
Altitude
Unknown
Speed
Unknown
Apparent Right ascension
Unknown
Apparent Declination
Unknown
Sunlit
N/A
Visualization observer readout
Local Sidereal Time
07:20:44
Azimuth
Unknown
Elevation
Unknown
Doppler factor
Unknown
Orbital elements
Apogee altitude
620.538 km
Perigee altitude
618.594 km
Semi-major axis
6,997.703 km
Eccentricity
0.00014
Inclination
97.8888°
RAAN
355.0607°
Arg. of periapsis
95.2016°
True anomaly
264.91975°
Mean anomaly
264.9356°
Eccentric anomaly
264.92767°
Mean motion
3.70775 °/min
Orbital period
97.09 mins
BSTAR
0.000033182
Loading maneuver chart data...
Computing Atmospheric mass density...
Loading historical data...
Loading historical data...
Loading historical data...
Loading historical data...
Loading historical data...
Loading historical data...
Loading historical data...
Other satellites on launch #1 in the year 2026 (2026-01-03 UTC)

Documentation

Showing up to 5 results
|